Location: Sungai Bunut
(2.6333°N, 113.7333°E)
Time: 10:29:34
(UTC+00:00)

Transit 2A - Pass Details

Date: 05 December 2023
Orbit: 599 x 953 km, 66.7° (Epoch: 01 March)

Event Time Altitude Azimuth Distance (km) Brightness Sun altitude
Rises 06:17:34 0° 198° (SSW) 3,537 9.9 51.1°
Reaches altitude 10° 06:20:11 10° 197° (SSW) 2,554 9.4 50.6°
Maximum altitude 06:26:06 82° 110° (ESE) 843 7.1 49.5°
Drops below altitude 10° 06:31:28 10° 22° (NNE) 2,314 8.2 48.5°
Sets 06:33:44 0° 22° (NNE) 3,183 8.9 48.0°
